Weather History for Milwaukee, WI

Change the Weather History Date:

Sunday, June 1, 2014

  Actual Average Record
Temperature  
Mean Temperature 74 °F 61 °F  
Max Temperature 84 °F 71 °F 104 °F (1934)
Min Temperature 63 °F 52 °F 36 °F (1966)
Degree Days  
Heating Degree Days 0 6  
Month to date heating degree days 0 6  
Since 1 June heating degree days 0 6  
Since 1 July heating degree days 7668 6816  
Cooling Degree Days 9 2  
Month to date cooling degree days 9 2  
Year to date cooling degree days 27 32  
Since 1 June cooling degree days 9 2  
Growing Degree Days 22 (Base 50)    
Moisture  
Dew Point 58 °F    
Average Humidity 65    
Maximum Humidity 84    
Minimum Humidity 45    
Precipitation  
Precipitation 0.24 in 0.12 in 2.14 in (1875)
Month to date precipitation 0.24 0.12  
Year to date precipitation 11.19 12.76  
Snow  
Snow 0.00 in 0.00 in 0.00 in ()
Month to date snowfall 0.0 0.0  
Since 1 June snowfall 0.0 0.0  
Since 1 July snowfall 63.4 46.9  
Snow Depth 0.00 in    
Sea Level Pressure  
Sea Level Pressure 29.96 in    
Wind  
Wind Speed 11 mph (South)    
Max Wind Speed 22 mph    
Max Gust Speed 32 mph    
Visibility 10 miles    
Events Rain , Thunderstorm    
T = Trace of Precipitation, MM = Missing Value Source: NWS Daily Summary

Daily Weather History Graph

Daily Weather History Graph

Search for Another Location

Airport:

Trip Planner

Search our weather history database for the weather conditions in past years. The results will help you decide how hot, cold, wet, or windy it might be!

Date:

Astronomy

Jun. 01, 2014 Rise Set
Actual Time 5:15 AM CDT 8:23 PM CDT
Civil Twilight 4:41 AM CDT 8:58 PM CDT
Nautical Twilight 3:56 AM CDT 9:42 PM CDT
Astronomical Twilight 3:03 AM CDT 10:36 PM CDT
Moon 8:49 AM CDT (6/1) 11:15 PM CDT (6/1)
Length of Visible Light 16h 17m
Length of Day
15h 08m
Waxing Crescent, 14% of the Moon is Illuminated
Jun 1
Waxing Crescent
Jun 5
First Quarter
Jun 12
Full
Jun 19
Last Quarter
Jun 27
New

Hourly Weather History & Observations

Time (CDT) Temp. Heat Index Dew Point Humidity Pressure Visibility Wind Dir Wind Speed Gust Speed Precip Events Conditions
12:52 AM 64.9 °F - 50.0 °F 58% 30.07 in 10.0 mi South 8.1 mph - N/A   Partly Cloudy
1:52 AM 64.0 °F - 48.9 °F 58% 30.08 in 10.0 mi South 8.1 mph - N/A   Partly Cloudy
2:52 AM 64.0 °F - 50.0 °F 60% 30.06 in 10.0 mi South 9.2 mph - N/A   Partly Cloudy
3:52 AM 66.9 °F - 52.0 °F 59% 30.06 in 10.0 mi South 9.2 mph - N/A   Scattered Clouds
4:52 AM 66.9 °F - 53.1 °F 61% 30.05 in 10.0 mi South 11.5 mph - N/A   Mostly Cloudy
5:52 AM 66.9 °F - 53.1 °F 61% 30.05 in 10.0 mi South 8.1 mph - N/A   Mostly Cloudy
6:52 AM 66.9 °F - 54.0 °F 63% 30.05 in 10.0 mi South 8.1 mph - N/A   Mostly Cloudy
7:52 AM 71.1 °F - 55.0 °F 57% 30.05 in 10.0 mi South 8.1 mph - N/A   Mostly Cloudy
8:52 AM 75.9 °F - 55.9 °F 50% 30.03 in 10.0 mi South 11.5 mph - N/A   Scattered Clouds
9:52 AM 80.6 °F 80.8 °F 57.2 °F 45% 30.03 in 10.0 mi SSW 16.1 mph - N/A   Mostly Cloudy
10:52 AM 81.0 °F 81.3 °F 59.0 °F 47% 30.01 in 10.0 mi SSW 12.7 mph 24.2 mph N/A   Mostly Cloudy
11:52 AM 84.0 °F 84.5 °F 62.1 °F 47% 30.00 in 10.0 mi SSW 13.8 mph 21.9 mph N/A   Scattered Clouds
12:52 PM 82.0 °F 82.7 °F 61.0 °F 49% 29.98 in 10.0 mi SE 17.3 mph - N/A   Scattered Clouds
1:52 PM 82.0 °F 82.4 °F 60.1 °F 47% 29.95 in 10.0 mi SE 15.0 mph - N/A   Scattered Clouds
2:52 PM 79.0 °F - 60.1 °F 52% 29.91 in 10.0 mi SSE 13.8 mph - 0.00 in   Mostly Cloudy
3:52 PM 81.0 °F 81.3 °F 59.0 °F 47% 29.88 in 10.0 mi South 18.4 mph - N/A   Scattered Clouds
4:41 PM 79.0 °F - 57.9 °F 48% 29.89 in 10.0 mi SSE 16.1 mph - N/A Thunderstorm Thunderstorm
4:52 PM 79.0 °F - 57.9 °F 48% 29.88 in 10.0 mi SSE 11.5 mph - N/A Thunderstorm Thunderstorm
5:26 PM 72.0 °F - 64.9 °F 78% 29.90 in 5.0 mi Variable 6.9 mph - 0.14 in Rain , Thunderstorm Thunderstorms and Rain
5:52 PM 72.0 °F - 66.9 °F 84% 29.88 in 10.0 mi NNW 4.6 mph - 0.14 in   Mostly Cloudy
6:52 PM 72.0 °F - 60.1 °F 66% 29.86 in 10.0 mi SE 15.0 mph - 0.01 in   Mostly Cloudy
7:09 PM 66.9 °F - 55.9 °F 68% 29.87 in 10.0 mi SSE 8.1 mph - 0.00 in Rain , Thunderstorm Light Thunderstorms and Rain
7:52 PM 71.1 °F - 66.0 °F 84% 29.88 in 9.0 mi SSE 4.6 mph 25.3 mph 0.08 in Rain , Thunderstorm Light Thunderstorms and Rain
8:40 PM 71.1 °F - 66.0 °F 84% 29.86 in 10.0 mi South 5.8 mph - 0.01 in   Mostly Cloudy
8:52 PM 71.6 °F - 66.2 °F 83% 29.86 in 10.0 mi South 4.6 mph - N/A   Mostly Cloudy
9:52 PM 68.0 °F - 63.0 °F 84% 29.86 in 9.0 mi SW 3.5 mph - N/A   Mostly Cloudy
10:52 PM 71.1 °F - 66.0 °F 84% 29.88 in 10.0 mi SSW 8.1 mph - N/A   Mostly Cloudy
11:52 PM 73.0 °F - 64.9 °F 76% 29.88 in 10.0 mi SSW 13.8 mph - N/A   Mostly Cloudy